Regional Weather Roundup
Issued by NWS

Home | Current Version | Previous Version | Graphics & Text | Print | Product List | Glossary On
Versions: 1 2 3 4 5 6 7 8 9 10 11 12 13 14 15 16 17 18 19 20 21 22 23 24 25 26 27 28 29 30 31 32 33 34 35 36 37 38 39 40 41 42 43 44 45 46 47 48 49 50
000
ASUS43 KLSX 150857
RWRMO

WEATHER SUMMARY FOR MISSOURI
NATIONAL WEATHER SERVICE SPRINGFIELD MO
300 AM CST FRI DEC 15 2017

NOTE: "FAIR" INDICATES FEW OR NO CLOUDS BELOW 12,000 FEET WITH NO
       SIGNIFICANT WEATHER AND/OR OBSTRUCTIONS TO VISIBILITY.
       CURRENT SKY AND/OR WEATHER CONDITIONS ARE NOT AVAILABLE FOR
       CHILLICOTHE AND FARMINGTON.

MOZ001>031-035>038-043-044-053-054-151000-
...NORTHERN AND WESTERN MISSOURI...

CITY           SKY/WX    TMP DP  RH WIND       PRES   REMARKS
KANSAS CTY INT CLOUDY    35  30  82 W6        30.12R
LEE`S SUMMIT   CLOUDY    35  27  72 W7        30.12S WCI  29
ST JOSEPH      CLOUDY    36  31  82 NW10      30.13R WCI  28
CHILLICOTHE      N/A     32  25  75 CALM      30.11S

$$
MOZ066>068-077>081-088>096-101>105-151000-
...SOUTHWEST MISSOURI...

CITY           SKY/WX    TMP DP  RH WIND       PRES   REMARKS
SPRINGFIELD    MOCLDY    31  26  82 SW7       30.11R WCI  24
JOPLIN         CLOUDY    35  29  78 SW7       30.15R WCI  29

$$
MOZ032>034-039>042-045>050-055>058-069>072-151000-
...CENTRAL MISSOURI...

CITY           SKY/WX    TMP DP  RH WIND       PRES   REMARKS
COLUMBIA       NOT AVBL
JEFFERSON CITY PTCLDY    30  23  75 N3        30.14R
SEDALIA        CLOUDY    34  27  75 SW7       30.12S WCI  28
WARRENSBURG    CLOUDY    28  27  93 CALM      30.12S

$$
MOZ051-052-059>065-151000-
...EAST CENTRAL MISSOURI...

CITY           SKY/WX    TMP DP  RH WIND       PRES   REMARKS
ST LOUIS INTL  CLOUDY    30  22  72 W6        30.11S WCI  24

$$
MOZ072>076-082>087-097>100-106>115-151000-
...SOUTH CENTRAL AND SOUTHEAST MISSOURI...

CITY           SKY/WX    TMP DP  RH WIND       PRES   REMARKS
CAPE GIRARDEAU CLOUDY    31  22  69 W6        30.14R WCI  25
POPLAR BLUFF   CLOUDY    32  27  81 CALM      30.14S
WEST PLAINS    CLEAR     26  20  77 SW3       30.13R

$$



USA.gov is the U.S. government's official web portal to all federal, state and local government web resources and services.